Location: East Arcadia
(34.1056°N, 118.0176°W)
Time: 02:36:21
(UTC+00:00)

Cosmos 2297 Rocket - Pass Details

Date: 01 April 2023
Orbit: 838 x 845 km, 71.0° (Epoch: 08 June)

Event Time Altitude Azimuth Distance (km) Brightness Sun altitude
Rises 12:19:12 0° 337° (NNW) 3,402 5.3 -17.1°
Reaches altitude 10° 12:21:39 10° 336° (NNW) 2,465 4.6 -16.6°
Maximum altitude 12:27:18 76° 252° (WSW) 870 2.1 -15.5°
Drops below altitude 10° 12:32:55 10° 167° (SSE) 2,454 4.6 -14.4°
Sets 12:35:21 0° 165° (SSE) 3,386 5.3 -13.9°
